Hagerstown, MD

10:00 PM EST on November 11, 2019 (GMT -0500)
Hagerstown Regional-Henson

Weather History for KHGR - October, 2019

Change the Weather History Date:

Wednesday, October 23, 2019

  Actual Average Record
Temperature  
Mean Temperature 55 °F 53 °F  
Max Temperature 64 °F 63 °F 77 °F (2001)
Min Temperature 45 °F 42 °F 28 °F (1997)
Degree Days  
Heating Degree Days 10 13  
Month to date heating degree days 161 217  
Since 1 July heating degree days 162 291  
Cooling Degree Days 0 0  
Month to date cooling degree days 35 9  
Year to date cooling degree days 1473 968  
Growing Degree Days 6 (Base 50)    
Moisture  
Dew Point 40 °F    
Average Humidity 63    
Maximum Humidity 100    
Minimum Humidity 26    
Precipitation  
Precipitation 0.00 in 0.08 in 0.16 in (2012)
Month to date precipitation 1.64 2.27  
Year to date precipitation 30.49 32.57  
Sea Level Pressure  
Sea Level Pressure 30.06 in    
Wind  
Wind Speed 8 mph (WSW)    
Max Wind Speed 20 mph    
Max Gust Speed 25 mph    
Visibility 8 miles    
Events Fog    
T = Trace of Precipitation, MM = Missing Value Source: NWS Daily Summary

Daily Weather History Graph

Daily Weather History Graph

Search for Another Location

Airport or City:

Astronomy

Oct. 23, 2019 Rise Set
Actual Time 7:29 AM EDT 6:20 PM EDT
Civil Twilight 7:01 AM EDT 6:48 PM EDT
Nautical Twilight 6:30 AM EDT 7:19 PM EDT
Astronomical Twilight 5:59 AM EDT 7:50 PM EDT
Moon 1:46 AM EDT (10/23) 4:08 PM EDT (10/23)
Length of Visible Light 11h 46m
Length of Day
10h 51m
Waning Crescent, 27% of the Moon is Illuminated
Oct 23
Waning Crescent
Oct 27
New
Nov 4
First Quarter
Nov 12
Full
Nov 19
Last Quarter

Hourly Weather History & Observations

Time (EDT) Temp. Dew Point Humidity Pressure Visibility Wind Dir Wind Speed Gust Speed Precip Events Conditions
12:53 AM 54.0 °F 53.1 °F 97% 29.90 in 0.2 mi South 5.8 mph - N/A Fog Fog
1:53 AM 52.0 °F 51.1 °F 97% 29.91 in 0.5 mi WSW 3.5 mph - N/A Fog Fog
2:09 AM 52.0 °F 50.0 °F 93% 29.88 in 1.5 mi WSW 4.6 mph - N/A   Mostly Cloudy
2:18 AM 51.1 °F 50.0 °F 96% 29.89 in 0.8 mi SW 5.8 mph - N/A   Mist
2:46 AM 51.1 °F 50.0 °F 96% 29.89 in 2.0 mi SW 5.8 mph - N/A   Mostly Cloudy
2:53 AM 51.1 °F 48.9 °F 92% 29.92 in 5.0 mi SW 5.8 mph - N/A   Scattered Clouds
3:53 AM 50.0 °F 48.0 °F 93% 29.94 in 10.0 mi WSW 6.9 mph - N/A   Clear
4:53 AM 51.1 °F 46.9 °F 86% 29.96 in 10.0 mi SW 6.9 mph - N/A   Clear
5:53 AM 50.0 °F 46.0 °F 86% 29.98 in 10.0 mi SW 5.8 mph - N/A   Clear
6:53 AM 50.0 °F 44.1 °F 80% 30.01 in 10.0 mi SW 4.6 mph - N/A   Clear
7:53 AM 48.9 °F 44.1 °F 83% 30.03 in 10.0 mi SW 3.5 mph - N/A   Clear
8:53 AM 51.1 °F 44.1 °F 77% 30.06 in 10.0 mi WSW 5.8 mph - N/A   Clear
9:53 AM 55.0 °F 44.1 °F 67% 30.08 in 10.0 mi SW 6.9 mph - N/A   Clear
10:53 AM 55.9 °F 41.0 °F 57% 30.09 in 10.0 mi WSW 8.1 mph - N/A   Clear
11:53 AM 57.9 °F 39.9 °F 51% 30.10 in 10.0 mi West 12.7 mph - N/A   Partly Cloudy
12:53 PM 59.0 °F 37.9 °F 46% 30.08 in 10.0 mi West 10.4 mph - N/A   Partly Cloudy
1:53 PM 62.1 °F 37.0 °F 39% 30.09 in 10.0 mi West 16.1 mph - N/A   Partly Cloudy
2:53 PM 64.0 °F 32.0 °F 30% 30.08 in 10.0 mi West 15.0 mph 21.9 mph N/A   Partly Cloudy
3:53 PM 64.0 °F 28.9 °F 27% 30.10 in 10.0 mi West 20.7 mph - N/A   Clear
4:53 PM 63.0 °F 32.0 °F 31% 30.11 in 10.0 mi West 13.8 mph 19.6 mph N/A   Clear
5:53 PM 61.0 °F 30.0 °F 31% 30.14 in 10.0 mi West 9.2 mph - N/A   Clear
6:53 PM 55.9 °F 30.9 °F 39% 30.17 in 10.0 mi West 8.1 mph - N/A   Clear
7:53 PM 54.0 °F 30.9 °F 41% 30.21 in 10.0 mi WNW 3.5 mph - N/A   Clear
8:53 PM 54.0 °F 30.0 °F 40% 30.23 in 10.0 mi Calm Calm - N/A   Clear
9:53 PM 50.0 °F 34.0 °F 54% 30.25 in 10.0 mi South 4.6 mph - N/A   Clear
10:53 PM 54.0 °F 30.9 °F 41% 30.25 in 10.0 mi SW 5.8 mph - N/A   Clear
11:53 PM 46.0 °F 34.0 °F 63% 30.26 in 10.0 mi Calm Calm - N/A   Clear